AAL44M TNCA-TNCC

Flight info

Callsign AAL44M
Flight time 0h 15m
Altitude 11000
Route ADRIV1F ADRIV ARUB1B
Aircraft B738/M-SDE2E3FGHIRWXY/LB1

Departure

Time 2026-04-23 20:04
Airport Queen Beatrix International Airport (TNCA)

Arrival

Time 2026-04-23 20:20
Airport Hato International Airport (TNCC)
Time Latitude Longitude Altitude Speed Heading
2026-04-23 19:51 12.50318 -70.00954 70 ft 0 kts 14°
2026-04-23 19:57 12.50310 -70.00956 70 ft 2 kts 14°
2026-04-23 19:58 12.50293 -70.00960 70 ft 3 kts
2026-04-23 19:58 12.50273 -70.00958 70 ft 3 kts 345°
2026-04-23 19:58 12.50254 -70.00949 70 ft 3 kts 325°
2026-04-23 19:58 12.50239 -70.00935 70 ft 3 kts 307°
2026-04-23 19:59 12.50229 -70.00917 70 ft 3 kts 291°
2026-04-23 19:59 12.50227 -70.00907 70 ft 0 kts 284°
2026-04-23 20:00 12.50227 -70.00909 70 ft 1 kts 284°
2026-04-23 20:00 12.50234 -70.00936 70 ft 6 kts 284°
2026-04-23 20:01 12.50250 -70.00996 70 ft 11 kts 284°
2026-04-23 20:01 12.50266 -70.01085 70 ft 14 kts 249°
2026-04-23 20:01 12.50248 -70.01188 70 ft 16 kts 281°
2026-04-23 20:01 12.50277 -70.01314 70 ft 20 kts 287°
2026-04-23 20:02 12.50311 -70.01464 70 ft 24 kts 281°
2026-04-23 20:02 12.50351 -70.01650 70 ft 29 kts 283°
2026-04-23 20:02 12.50404 -70.01864 70 ft 33 kts 284°
2026-04-23 20:02 12.50461 -70.02106 70 ft 36 kts 283°
2026-04-23 20:03 12.50521 -70.02360 70 ft 38 kts 284°
2026-04-23 20:03 12.50584 -70.02620 70 ft 34 kts 281°
2026-04-23 20:03 12.50508 -70.02751 70 ft 20 kts 192°
2026-04-23 20:03 12.50424 -70.02705 70 ft 12 kts 100°
2026-04-23 20:04 12.50371 -70.02481 70 ft 75 kts 104°
2026-04-23 20:04 12.50166 -70.01650 71 ft 162 kts 104°
2026-04-23 20:04 12.49852 -70.00376 735 ft 188 kts 104°
2026-04-23 20:04 12.49532 -69.99082 1928 ft 189 kts 104°
2026-04-23 20:05 12.49212 -69.97752 2785 ft 204 kts 103°
2026-04-23 20:05 12.48865 -69.96230 3207 ft 235 kts 103°
2026-04-23 20:05 12.48469 -69.94534 3745 ft 254 kts 103°
2026-04-23 20:05 12.48033 -69.92705 4401 ft 270 kts 103°
2026-04-23 20:06 12.47587 -69.90834 5367 ft 278 kts 103°
2026-04-23 20:06 12.47123 -69.88891 6227 ft 288 kts 104°
2026-04-23 20:06 12.46633 -69.86842 7175 ft 295 kts 104°
2026-04-23 20:06 12.46144 -69.84796 8176 ft 298 kts 104°
2026-04-23 20:07 12.45647 -69.82714 9133 ft 303 kts 104°
2026-04-23 20:07 12.45145 -69.80630 10035 ft 309 kts 106°
2026-04-23 20:07 12.44552 -69.78480 10149 ft 316 kts 107°
2026-04-23 20:07 12.43940 -69.76326 9999 ft 314 kts 107°
2026-04-23 20:08 12.43336 -69.74186 9932 ft 311 kts 107°
2026-04-23 20:08 12.42746 -69.72076 9893 ft 306 kts 107°
2026-04-23 20:08 12.42165 -69.70015 9856 ft 296 kts 108°
2026-04-23 20:08 12.41509 -69.68065 9850 ft 284 kts 111°
2026-04-23 20:09 12.40845 -69.66172 9842 ft 284 kts 111°
2026-04-23 20:09 12.40166 -69.64237 9695 ft 291 kts 111°
2026-04-23 20:09 12.39476 -69.62271 9484 ft 296 kts 111°
2026-04-23 20:09 12.38776 -69.60278 9204 ft 301 kts 111°
2026-04-23 20:10 12.38307 -69.58940 9005 ft 301 kts 111°
2026-04-23 20:10 12.37359 -69.56241 8590 ft 300 kts 111°
2026-04-23 20:10 12.36654 -69.54230 8274 ft 300 kts 111°
2026-04-23 20:10 12.35959 -69.52252 7959 ft 299 kts 111°
2026-04-23 20:11 12.35256 -69.50247 7638 ft 299 kts 111°
2026-04-23 20:11 12.34553 -69.48244 7313 ft 299 kts 111°
2026-04-23 20:11 12.33853 -69.46247 6984 ft 298 kts 111°
2026-04-23 20:11 12.33156 -69.44245 6654 ft 298 kts 111°
2026-04-23 20:12 12.32460 -69.42251 6321 ft 297 kts 110°
2026-04-23 20:12 12.31765 -69.40264 5989 ft 297 kts 110°
2026-04-23 20:12 12.31071 -69.38281 5661 ft 296 kts 109°
2026-04-23 20:12 12.30377 -69.36304 5335 ft 294 kts 109°
2026-04-23 20:13 12.29688 -69.34340 5012 ft 293 kts 109°
2026-04-23 20:13 12.29002 -69.32388 4690 ft 291 kts 109°
2026-04-23 20:13 12.28320 -69.30448 4362 ft 289 kts 109°
2026-04-23 20:13 12.27644 -69.28526 4101 ft 284 kts 109°
2026-04-23 20:14 12.26983 -69.26646 3920 ft 277 kts 109°
2026-04-23 20:14 12.26340 -69.24820 3756 ft 268 kts 109°
2026-04-23 20:14 12.25719 -69.23053 3602 ft 260 kts 109°
2026-04-23 20:14 12.25117 -69.21344 3516 ft 249 kts 109°
2026-04-23 20:15 12.24542 -69.19711 3397 ft 240 kts 109°
2026-04-23 20:15 12.23994 -69.18156 3275 ft 231 kts 110°
2026-04-23 20:15 12.23477 -69.16685 3156 ft 223 kts 110°
2026-04-23 20:15 12.22952 -69.15172 3032 ft 216 kts 108°
2026-04-23 20:16 12.22568 -69.13677 2916 ft 213 kts 103°
2026-04-23 20:16 12.22269 -69.12232 2813 ft 206 kts 102°
2026-04-23 20:16 12.21976 -69.10812 2711 ft 196 kts 102°
2026-04-23 20:16 12.21704 -69.09499 2565 ft 185 kts 102°
2026-04-23 20:17 12.21442 -69.08239 2326 ft 179 kts 102°
2026-04-23 20:17 12.21187 -69.07015 2031 ft 170 kts 102°
2026-04-23 20:17 12.20952 -69.05887 1806 ft 156 kts 102°
2026-04-23 20:17 12.20734 -69.04838 1614 ft 147 kts 102°
2026-04-23 20:18 12.20525 -69.03833 1425 ft 143 kts 102°
2026-04-23 20:18 12.20317 -69.02837 1242 ft 143 kts 102°
2026-04-23 20:18 12.20111 -69.01846 1054 ft 143 kts 102°
2026-04-23 20:18 12.19905 -69.00857 866 ft 142 kts 102°
2026-04-23 20:19 12.19699 -68.99868 672 ft 142 kts 102°
2026-04-23 20:19 12.19500 -68.98884 395 ft 142 kts 102°
2026-04-23 20:19 12.19290 -68.97922 200 ft 134 kts 103°
2026-04-23 20:19 12.19085 -68.97025 54 ft 127 kts 102°
2026-04-23 20:20 12.18929 -68.96209 37 ft 96 kts 101°
2026-04-23 20:20 12.18843 -68.95772 37 ft 47 kts 101°
2026-04-23 20:20 12.18784 -68.95470 37 ft 41 kts 101°
2026-04-23 20:20 12.18697 -68.95321 37 ft 14 kts 191°
2026-04-23 20:21 12.18618 -68.95341 37 ft 9 kts 211°
2026-04-23 20:21 12.18604 -68.95396 37 ft 10 kts 277°
2026-04-23 20:21 12.18615 -68.95484 37 ft 15 kts 279°
2026-04-23 20:21 12.18636 -68.95602 37 ft 19 kts 274°
2026-04-23 20:22 12.18582 -68.95640 37 ft 10 kts 192°
2026-04-23 20:22 12.18573 -68.95642 37 ft 0 kts 192°
2026-04-23 20:22 12.18546 -68.95648 37 ft 0 kts 192°
2026-04-23 20:34 12.18547 -68.95648 37 ft 1 kts 192°
2026-04-23 20:34 12.18560 -68.95645 37 ft 3 kts 192°
2026-04-23 20:34 12.18578 -68.95641 37 ft 3 kts 192°
2026-04-23 20:35 12.18598 -68.95637 37 ft 3 kts 192°
2026-04-23 20:35 12.18618 -68.95633 37 ft 2 kts 192°
2026-04-23 20:35 12.18619 -68.95632 37 ft 0 kts 192°
2026-04-23 20:37 12.18606 -68.95662 37 ft 13 kts 290°
2026-04-23 20:37 12.18673 -68.95803 37 ft 31 kts 301°
2026-04-23 20:37 12.18735 -68.96047 37 ft 44 kts 280°
2026-04-23 20:38 12.18803 -68.96382 37 ft 51 kts 282°
2026-04-23 20:38 12.18877 -68.96684 37 ft 22 kts 310°
2026-04-23 20:38 12.18928 -68.96702 37 ft 0 kts 13°
2026-04-23 20:39 12.18958 -68.96696 37 ft 10 kts 12°
2026-04-23 20:40 12.19023 -68.96628 37 ft 22 kts 91°
2026-04-23 20:40 12.18938 -68.96208 37 ft 107 kts 102°
2026-04-23 20:40 12.18737 -68.95276 66 ft 180 kts 102°
2026-04-23 20:40 12.18441 -68.93895 847 ft 202 kts 102°
2026-04-23 20:41 12.18616 -68.92459 1772 ft 212 kts 62°
2026-04-23 20:41 12.19674 -68.91475 2261 ft 204 kts 26°
2026-04-23 20:41 12.20910 -68.91118 2364 ft 184 kts 12°
2026-04-23 20:41 12.22140 -68.90846 2446 ft 167 kts 11°
2026-04-23 20:42 12.23348 -68.90990 2552 ft 195 kts 338°
2026-04-23 20:42 12.24447 -68.91929 2736 ft 227 kts 306°
2026-04-23 20:42 12.25117 -68.93482 2949 ft 252 kts 285°
2026-04-23 20:42 12.25457 -68.95298 3770 ft 262 kts 280°
2026-04-23 20:43 12.25750 -68.97125 5047 ft 257 kts 280°
2026-04-23 20:43 12.26027 -68.98908 6308 ft 251 kts 279°
2026-04-23 20:43 12.26300 -69.00667 7402 ft 253 kts 278°
2026-04-23 20:43 12.26580 -69.02471 8341 ft 259 kts 278°
2026-04-23 20:44 12.26864 -69.04306 9308 ft 263 kts 278°
2026-04-23 20:44 12.27150 -69.06158 10234 ft 268 kts 278°
2026-04-23 20:44 12.27449 -69.08088 10757 ft 289 kts 278°
2026-04-23 20:44 12.27780 -69.10228 11141 ft 312 kts 278°
2026-04-23 20:45 12.28130 -69.12500 11468 ft 335 kts 278°
2026-04-23 20:45 12.28496 -69.14870 12116 ft 345 kts 278°
2026-04-23 20:45 12.28844 -69.17123 12945 ft 348 kts 278°
2026-04-23 20:45 12.29230 -69.19631 13790 ft 352 kts 278°
2026-04-23 20:46 12.29614 -69.22124 14466 ft 358 kts 278°
2026-04-23 20:46 12.30005 -69.24659 14864 ft 360 kts 278°
2026-04-23 20:46 12.30395 -69.27198 14982 ft 362 kts 278°
2026-04-23 20:46 12.30785 -69.29723 14991 ft 363 kts 278°
2026-04-23 20:47 12.31181 -69.32265 14996 ft 362 kts 278°
2026-04-23 20:47 12.31581 -69.34842 14997 ft 362 kts 278°
2026-04-23 20:47 12.31973 -69.37377 14950 ft 360 kts 278°
2026-04-23 20:47 12.32359 -69.39873 14671 ft 351 kts 278°
2026-04-23 20:48 12.32738 -69.42325 13830 ft 357 kts 278°
2026-04-23 20:48 12.33132 -69.44885 12582 ft 372 kts 278°
2026-04-23 20:48 12.33539 -69.47527 11680 ft 376 kts 278°
2026-04-23 20:48 12.33942 -69.50145 11105 ft 370 kts 278°
2026-04-23 20:49 12.34338 -69.52724 10454 ft 366 kts 278°
2026-04-23 20:49 12.34731 -69.55287 9801 ft 363 kts 278°
2026-04-23 20:49 12.35118 -69.57804 9321 ft 355 kts 278°
2026-04-23 20:49 12.35498 -69.60284 8723 ft 351 kts 278°
2026-04-23 20:50 12.35874 -69.62743 8105 ft 349 kts 278°
2026-04-23 20:50 12.36249 -69.65190 7503 ft 346 kts 278°
2026-04-23 20:50 12.36619 -69.67611 6908 ft 343 kts 278°
2026-04-23 20:50 12.36986 -69.70014 6314 ft 340 kts 278°
2026-04-23 20:51 12.37352 -69.72404 5626 ft 341 kts 279°
2026-04-23 20:51 12.37721 -69.74822 4881 ft 344 kts 280°
2026-04-23 20:51 12.38059 -69.77041 4589 ft 341 kts 279°
2026-04-23 20:51 12.38432 -69.79487 4459 ft 341 kts 279°
2026-04-23 20:52 12.38810 -69.81903 4373 ft 348 kts 281°
2026-04-23 20:52 12.39214 -69.84349 4241 ft 348 kts 280°
2026-04-23 20:52 12.39586 -69.86790 4176 ft 347 kts 279°
2026-04-23 20:52 12.39944 -69.89221 4114 ft 347 kts 279°
2026-04-23 20:53 12.40291 -69.91554 4095 ft 347 kts 279°
2026-04-23 20:53 12.40659 -69.93996 4092 ft 347 kts 279°
2026-04-23 20:53 12.41027 -69.96437 4092 ft 347 kts 279°
2026-04-23 20:53 12.41385 -69.98810 4091 ft 347 kts 279°
2026-04-23 20:54 12.41753 -70.01246 4092 ft 347 kts 279°
2026-04-23 20:54 12.42121 -70.03686 4092 ft 347 kts 279°
2026-04-23 20:54 12.42490 -70.06134 4092 ft 347 kts 279°
2026-04-23 20:54 12.42855 -70.08555 4092 ft 347 kts 279°
2026-04-23 20:55 12.43231 -70.11049 4092 ft 347 kts 279°
2026-04-23 20:55 12.43594 -70.13461 4092 ft 347 kts 279°
2026-04-23 20:55 12.43955 -70.15855 4092 ft 347 kts 279°
2026-04-23 20:55 12.44338 -70.18311 4123 ft 334 kts 281°
2026-04-23 20:56 12.45231 -70.20395 4120 ft 306 kts 307°
2026-04-23 20:56 12.46809 -70.21631 4088 ft 273 kts 337°
2026-04-23 20:56 12.48579 -70.21812 4090 ft 242 kts
2026-04-23 20:56 12.50101 -70.21471 4095 ft 207 kts 13°
2026-04-23 20:57 12.51254 -70.20787 3946 ft 185 kts 48°
2026-04-23 20:57 12.51824 -70.19707 4027 ft 163 kts 66°
2026-04-23 20:57 12.52135 -70.18655 4087 ft 152 kts 74°
2026-04-23 20:57 12.52322 -70.17595 3998 ft 148 kts 80°
2026-04-23 20:58 12.52454 -70.16537 3553 ft 153 kts 81°
2026-04-23 20:58 12.52621 -70.15430 2891 ft 163 kts 81°
2026-04-23 20:58 12.52791 -70.14287 2333 ft 162 kts 83°
2026-04-23 20:58 12.52791 -70.13136 1786 ft 161 kts 94°
2026-04-23 20:59 12.52634 -70.12067 1612 ft 143 kts 101°
2026-04-23 20:59 12.52419 -70.11106 1682 ft 136 kts 103°
2026-04-23 20:59 12.52194 -70.10155 1555 ft 138 kts 103°
2026-04-23 20:59 12.51967 -70.09200 1335 ft 137 kts 103°
2026-04-23 21:00 12.51742 -70.08256 1150 ft 136 kts 103°
2026-04-23 21:00 12.51518 -70.07317 969 ft 136 kts 103°
2026-04-23 21:00 12.51296 -70.06382 789 ft 135 kts 103°
2026-04-23 21:00 12.51073 -70.05448 609 ft 135 kts 103°
2026-04-23 21:01 12.50851 -70.04516 430 ft 135 kts 103°
2026-04-23 21:01 12.50630 -70.03587 252 ft 134 kts 103°
2026-04-23 21:01 12.50411 -70.02669 86 ft 134 kts 103°
2026-04-23 21:01 12.50209 -70.01822 70 ft 100 kts 103°
2026-04-23 21:02 12.50104 -70.01376 70 ft 44 kts 103°
2026-04-23 21:02 12.50041 -70.01101 70 ft 37 kts 101°
2026-04-23 21:02 12.50104 -70.00990 70 ft 15 kts
2026-04-23 21:02 12.50135 -70.00984 70 ft 0 kts 13°